Location: Evensen
(52.5775°N, 9.5258°E)
Time: 08:01:12
(UTC+00:00)

Cosmos 2279 Rocket - Pass Details

Date: 15 May 2026
Orbit: 963 x 978 km, 82.9° (Epoch: 5 June)

Event Time Altitude Azimuth Distance (km) Brightness Sun altitude
Exits shadow 22:16:39 26° 176° (S) 1,814 4.8 -17.1°
Maximum altitude 22:20:20 74° 96° (E) 1,021 4.0 -17.3°
Drops below altitude 10° 22:26:36 10° 13° (NNE) 2,740 7.3 -17.5°
Sets 22:29:07 0° 12° (NNE) 3,691 8.2 -17.6°
